Change the Weather History Date:

Sunday, June 23, 2013

  Actual Average Record
Temperature  
Mean Temperature 79 °F -  
Max Temperature 92 °F 92 °F 100 °F (2007)
Min Temperature 66 °F 72 °F 62 °F (2005)
Cooling Degree Days 14    
Growing Degree Days 29 (Base 50)    
Moisture  
Dew Point 67 °F    
Average Humidity 69    
Maximum Humidity 100    
Minimum Humidity 32    
Precipitation  
Precipitation 0.00 in - - ()
Sea Level Pressure  
Sea Level Pressure 29.73 in    
Wind  
Wind Speed 6 mph ()    
Max Wind Speed 16 mph    
Max Gust Speed -    
Visibility 7.5 miles    
Events      
Averages and records for this station are not official NWS values.
T = Trace of Precipitation, MM = Missing Value Source: Averaged Metar Reports

Daily Weather History Graph

Daily Weather History Graph

Search for Another Location

Airport or City:

Trip Planner

Search our weather history database for the weather conditions in past years. The results will help you decide how hot, cold, wet, or windy it might be!

Date:

Astronomy

Jun. 23, 2013 Rise Set
Actual Time 5:19 AM EEST 8:01 PM EEST
Civil Twilight 4:48 AM EEST 8:32 PM EEST
Nautical Twilight 4:10 AM EEST 9:10 PM EEST
Astronomical Twilight 3:26 AM EEST 9:54 PM EEST
Moon 7:56 PM EEST (6/23) 5:12 AM EEST (6/23)
Length of Visible Light 15h 43m
Length of Day
14h 42m
Full, 100% of the Moon is Illuminated
Jun 23
Full
Jun 23
Full
Jun 30
Last Quarter
Jul 8
New
Jul 16
First Quarter

Hourly Weather History & Observations

Time (EEST) Temp. Heat Index Dew Point Humidity Pressure Visibility Wind Dir Wind Speed Gust Speed Precip Events Conditions
12:20 AM 69.8 °F - 64.4 °F 83% 29.77 in - NE 4.6 mph - N/A   Clear
12:50 AM 68.0 °F - 62.6 °F 83% 29.77 in - NNE 5.8 mph - N/A   Clear
1:20 AM 68.0 °F - 64.4 °F 88% 29.77 in - NE 5.8 mph - N/A   Clear
1:50 AM 66.2 °F - 64.4 °F 94% 29.74 in - NE 6.9 mph - N/A   Clear
2:20 AM 68.0 °F - 66.2 °F 94% 29.74 in - NE 6.9 mph - N/A   Clear
2:50 AM 68.0 °F - 66.2 °F 94% 29.74 in - NE 6.9 mph - N/A   Clear
3:00 AM 69 °F - 66 °F 86% 29.74 in 12 mi NE 6.9 mph - -  
3:20 AM 68.0 °F - 66.2 °F 94% 29.74 in - NE 5.8 mph - N/A   Clear
3:50 AM 68.0 °F - 66.2 °F 94% 29.74 in - NE 4.6 mph - N/A   Clear
4:20 AM 68.0 °F - 66.2 °F 94% 29.74 in - NE 4.6 mph - N/A   Clear
4:50 AM 68.0 °F - 68.0 °F 100% 29.74 in - NE 4.6 mph - N/A   Clear
5:20 AM 66.2 °F - 66.2 °F 100% 29.74 in - NNE 4.6 mph - N/A   Clear
5:50 AM 66.2 °F - 66.2 °F 100% 29.74 in - North 3.5 mph - N/A   Clear
6:20 AM 69.8 °F - 69.8 °F 100% 29.74 in - NNW 2.3 mph - N/A   Clear
6:50 AM 73.4 °F - 69.8 °F 88% 29.74 in - NW 2.3 mph - N/A   Clear
7:20 AM 75.2 °F - 69.8 °F 83% 29.74 in - NW 2.3 mph - N/A   Clear
7:50 AM 77.0 °F - 69.8 °F 78% 29.74 in - WNW 3.5 mph - N/A   Clear
8:20 AM 78.8 °F - 69.8 °F 74% 29.74 in - SW 3.5 mph - N/A   Clear
8:50 AM 80.6 °F 83.2 °F 68.0 °F 65% 29.74 in - South 2.3 mph - N/A   Clear
9:00 AM 80 °F - 68 °F 59% 29.74 in 6 mi South 2.3 mph - -  
9:20 AM 82.4 °F 84.6 °F 66.2 °F 58% 29.74 in - South 6.9 mph - N/A   Clear
9:50 AM 84.2 °F 86.6 °F 66.2 °F 55% 29.74 in - SW 6.9 mph - N/A   Clear
10:20 AM 84.2 °F 87.3 °F 68.0 °F 58% 29.74 in - SW 3.5 mph - N/A   Clear
10:50 AM 86.0 °F 89.4 °F 68.0 °F 55% 29.74 in - SW 5.8 mph - N/A   Clear
11:20 AM 86.0 °F 89.4 °F 68.0 °F 55% 29.74 in - South 10.4 mph - N/A   Clear
11:50 AM 87.8 °F 90.4 °F 66.2 °F 49% 29.74 in - South 6.9 mph - N/A   Clear
12:20 PM 87.8 °F 91.4 °F 68.0 °F 52% 29.71 in - SW 3.5 mph - N/A   Clear
12:50 PM 89.6 °F 91.1 °F 64.4 °F 43% 29.71 in - South 4.6 mph - N/A   Clear
1:20 PM 91.4 °F 93.2 °F 64.4 °F 41% 29.71 in - West 8.1 mph - N/A   Clear
1:50 PM 91.4 °F 93.2 °F 64.4 °F 41% 29.71 in - South 9.2 mph - N/A   Clear
2:20 PM 91.4 °F 94.0 °F 66.2 °F 43% 29.71 in - South 12.7 mph - N/A   Clear
2:50 PM 91.4 °F 93.2 °F 64.4 °F 41% 29.71 in - South 16.1 mph - N/A   Clear
3:00 PM 91 °F - 65 °F 32% 29.71 in 6 mi South 16.1 mph - -  
3:20 PM 91.4 °F 92.1 °F 62.6 °F 38% 29.71 in - SSW 13.8 mph - N/A   Clear
3:50 PM 91.4 °F 92.1 °F 62.6 °F 38% 29.71 in - SW 12.7 mph - N/A   Clear
4:20 PM 91.4 °F 92.1 °F 62.6 °F 38% 29.71 in - SW 12.7 mph - N/A   Clear
4:50 PM 89.6 °F 90.1 °F 62.6 °F 40% 29.71 in - South 16.1 mph - N/A   Clear
5:20 PM 89.6 °F 90.1 °F 62.6 °F 40% 29.71 in - SSW 13.8 mph - N/A   Clear
5:50 PM 87.8 °F 90.4 °F 66.2 °F 49% 29.71 in - SSW 11.5 mph - N/A   Clear
6:20 PM 86.0 °F 88.2 °F 66.2 °F 51% 29.71 in - SSW 13.8 mph - N/A   Clear
6:50 PM 84.2 °F 85.6 °F 64.4 °F 51% 29.71 in - South 13.8 mph - N/A   Clear
7:20 PM 82.4 °F 85.4 °F 68.0 °F 62% 29.71 in - SSW 11.5 mph - N/A   Clear
7:50 PM 80.6 °F 83.9 °F 69.8 °F 70% 29.71 in - SSW 8.1 mph - N/A   Clear
8:20 PM 78.8 °F - 71.6 °F 78% 29.74 in - SW 8.1 mph - N/A   Clear
8:50 PM 77.0 °F - 71.6 °F 83% 29.74 in - South 4.6 mph - N/A   Clear
9:00 PM 78 °F - 71 °F 73% 29.74 in 6 mi South 4.6 mph - -  
9:20 PM 77.0 °F - 71.6 °F 83% 29.74 in - South 3.5 mph - N/A   Clear
9:50 PM 77.0 °F - 71.6 °F 83% 29.74 in - SSE 3.5 mph - N/A   Clear
10:20 PM 77.0 °F - 71.6 °F 83% 29.74 in - SE 2.3 mph - N/A   Clear
10:50 PM 75.2 °F - 71.6 °F 89% 29.74 in - Variable 2.3 mph - N/A   Clear
11:20 PM 73.4 °F - 69.8 °F 88% 29.74 in - ENE 2.3 mph - N/A   Clear
11:50 PM 75.2 °F - 71.6 °F 89% 29.74 in - ENE 2.3 mph - N/A   Clear